Location: Raitis
(47.2167°N, 11.3833°E)
Time: 07:55:59
(UTC+00:00)

Nadezhda 3 Rocket - Pass Details

Date: 03 March 2021
Orbit: 957 x 999 km, 82.9° (Epoch: 14 April)

Event Time Altitude Azimuth Distance (km) Brightness Sun altitude
Rises 17:26:50 0° 354° (N) 3,725 7.1 -4.9°
Reaches altitude 10° 17:29:28 10° 360° (N) 2,775 6.4 -5.3°
Maximum altitude 17:35:40 50° 75° (ENE) 1,252 4.2 -6.4°
Drops below altitude 10° 17:41:49 10° 150° (SSE) 2,762 6.1 -7.4°
Sets 17:44:25 0° 156° (SSE) 3,706 6.8 -7.9°
